CW3816 Reston VA US current weather conditions

sailwx.info

Wind from 339

Air temperature 27.8° C
Dewpoint 21.8° C

Last reported at 2020-Jul-10 00:02 UTC.
Time now 2020-Jul-10 00:31 UTC

Location: N 38°56' W 077°19'.
View on Google Maps.

See reports from other nearby stations

  
Tides and Currents Weather Stations Pressure Air Temp Water Temp Dewpoint Dewpoint Depression Visibility Wind Speed Wind Dir Waves Ship Positions
date/time (UTC)wind fromknots sea level pressurealtimeterstation pressurevisibilityair tempwater tempwave heightnotes
2020-Jul-10 00:02 339 27.8
2020-Jul-09 23:46 354 28.3
2020-Jul-09 23:31 295 28.3
2020-Jul-09 23:17 278 28.3
2020-Jul-09 23:01 020 28.3
2020-Jul-09 22:46 078 28.9
2020-Jul-09 22:31 277 28.9
2020-Jul-09 22:16 212 29.4
2020-Jul-09 22:01 213 30.0
2020-Jul-09 21:46 075 30.0
2020-Jul-09 21:31 287 30.0
2020-Jul-09 21:16 360 30.0
2020-Jul-09 21:02 360 30.6
2020-Jul-09 20:46 251 30.6
2020-Jul-09 20:31 288 0 30.6
2020-Jul-09 20:17 186 31.1
2020-Jul-09 20:02 052 31.1
2020-Jul-09 19:46 001 31.7
2020-Jul-09 19:31 208 31.7
2020-Jul-09 19:17 258 0 32.2
2020-Jul-09 19:01 038 0 32.2
2020-Jul-09 18:47 032 0 32.2
2020-Jul-09 18:31 246 31.7
2020-Jul-09 18:16 017 31.1
2020-Jul-09 18:01 051 0 31.1
2020-Jul-09 17:46 065 0 31.7
2020-Jul-09 17:31 027 0 31.1
2020-Jul-09 17:16 175 0 31.7
2020-Jul-09 17:01 001 0 31.7
2020-Jul-09 16:46 241 0 31.1
2020-Jul-09 16:31 360 0 31.1
2020-Jul-09 16:16 193 30.6
2020-Jul-09 16:01 120 30.6
2020-Jul-09 15:46 233 0 30.6
2020-Jul-09 15:31 030 0 29.4
2020-Jul-09 15:16 216 0 29.4
2020-Jul-09 15:01 011 0 29.4
2020-Jul-09 14:46 339 0 28.9
2020-Jul-09 14:32 006 0 28.3
2020-Jul-09 14:16 357 27.2
2020-Jul-09 14:01 234 26.1
2020-Jul-09 13:46 020 25.6
2020-Jul-09 13:31 017 24.4
2020-Jul-09 13:16 167 24.4
2020-Jul-09 13:01 167 23.9
2020-Jul-09 12:46 167 23.3
2020-Jul-09 12:31 167 23.3
2020-Jul-09 12:16 174 22.2
2020-Jul-09 12:01 174 21.7
2020-Jul-09 11:46 174 20.6
2020-Jul-09 11:31 174 20.6
2020-Jul-09 11:16 174 20.0
2020-Jul-09 11:01 174 20.0
2020-Jul-09 10:46 174 20.0
2020-Jul-09 10:31 174 20.0
2020-Jul-09 10:16 174 19.4
2020-Jul-09 10:01 174 19.4
2020-Jul-09 09:46 174 20.0
2020-Jul-09 09:31 174 20.0
2020-Jul-09 09:16 174 20.0
2020-Jul-09 09:01 174 20.0
2020-Jul-09 08:46 174 20.0
2020-Jul-09 08:31 174 20.0
2020-Jul-09 08:16 174 20.0
2020-Jul-09 08:01 174 20.0
2020-Jul-09 07:46 174 20.0
2020-Jul-09 07:31 174 20.6
2020-Jul-09 07:16 174 20.6
2020-Jul-09 07:01 174 20.6
2020-Jul-09 06:46 174 20.6
2020-Jul-09 06:32 174 20.6
2020-Jul-09 06:17 174 21.1
2020-Jul-09 06:02 174 21.1
2020-Jul-09 05:47 174 21.1
2020-Jul-09 05:31 174 21.1
2020-Jul-09 05:16 174 21.1
2020-Jul-09 05:01 174 21.1
2020-Jul-09 04:46 174 21.1
2020-Jul-09 04:32 174 21.1
2020-Jul-09 04:16 174 21.1
2020-Jul-09 04:02 174 21.1
2020-Jul-09 03:47 174 21.7
2020-Jul-09 03:32 172 21.7
2020-Jul-09 03:17 172 22.2
2020-Jul-09 03:01 172 22.2
2020-Jul-09 02:47 174 22.2
2020-Jul-09 02:31 174 22.8
2020-Jul-09 02:16 174 22.8
2020-Jul-09 02:01 174 23.3
2020-Jul-09 01:46 174 23.3
2020-Jul-09 01:31 174 23.9
2020-Jul-09 01:17 174 24.4
2020-Jul-09 01:01 174 25.0
2020-Jul-09 00:46 174 25.6
2020-Jul-09 00:31 174 26.1
2020-Jul-09 00:16 174 26.7
2020-Jul-09 00:01 174 27.2
2020-Jul-08 23:46 172 27.8
2020-Jul-08 23:31 174 27.8
2020-Jul-08 23:16 174 28.3
2020-Jul-08 23:02 174 28.9
2020-Jul-08 22:47 174 28.9
2020-Jul-08 22:32 210 28.9
2020-Jul-08 22:16 189 28.9
2020-Jul-08 22:01 189 29.4
2020-Jul-08 21:46 189 30.0
2020-Jul-08 21:31 189 30.0
2020-Jul-08 21:16 095 30.6
2020-Jul-08 21:01 092 30.6
2020-Jul-08 20:46 104 31.7
2020-Jul-08 20:31 154 32.2
2020-Jul-08 20:16 148 33.3
2020-Jul-08 20:02 112 32.8
2020-Jul-08 19:46 138 33.3
2020-Jul-08 19:32 247 33.3
2020-Jul-08 19:17 280 32.8
2020-Jul-08 19:01 288 33.3
2020-Jul-08 18:46 089 33.3
2020-Jul-08 18:32 256 32.8
2020-Jul-08 18:17 360 32.8
2020-Jul-08 18:01 143 32.8
2020-Jul-08 17:47 272 32.8
2020-Jul-08 17:31 227 32.8
2020-Jul-08 17:16 162 32.2
2020-Jul-08 17:01 196 32.2
2020-Jul-08 16:46 089 32.2
2020-Jul-08 16:31 342 32.2
2020-Jul-08 16:16 236 31.7
2020-Jul-08 16:01 263 31.7
2020-Jul-08 15:46 064 31.7
2020-Jul-08 15:31 253 31.1
2020-Jul-08 15:16 078 30.6
2020-Jul-08 15:01 088 30.0
2020-Jul-08 14:46 059 29.4
2020-Jul-08 14:31 267 28.9
2020-Jul-08 14:16 308 27.8
2020-Jul-08 14:01 008 26.7
2020-Jul-08 13:46 191 25.6
2020-Jul-08 13:31 232 25.0
2020-Jul-08 13:16 315 24.4
2020-Jul-08 13:01 244 23.9
2020-Jul-08 12:46 280 23.9
2020-Jul-08 12:31 313 23.3
2020-Jul-08 12:16 330 23.3
2020-Jul-08 12:01 342 22.8
2020-Jul-08 11:46 342 22.8
2020-Jul-08 11:31 344 22.2
2020-Jul-08 11:16 347 22.2
2020-Jul-08 11:01 347 21.7
2020-Jul-08 10:46 347 21.7
2020-Jul-08 10:31 360 21.7
2020-Jul-08 10:16 360 21.7
2020-Jul-08 10:01 360 21.7
2020-Jul-08 09:46 360 21.7
2020-Jul-08 09:31 360 21.7
2020-Jul-08 09:16 360 21.7
2020-Jul-08 09:01 360 22.2
2020-Jul-08 08:46 360 22.2
2020-Jul-08 08:31 360 22.2
2020-Jul-08 08:16 360 22.2
2020-Jul-08 08:01 360 22.2
2020-Jul-08 07:46 360 22.2
2020-Jul-08 07:32 360 22.8
2020-Jul-08 07:17 360 22.8
2020-Jul-08 07:01 360 22.8
2020-Jul-08 06:46 360 22.8
2020-Jul-08 06:31 360 22.8
2020-Jul-08 06:16 360 22.8
2020-Jul-08 06:01 360 22.8
2020-Jul-08 05:46 360 22.8
2020-Jul-08 05:32 360 23.3
2020-Jul-08 05:16 360 23.3
2020-Jul-08 05:02 360 23.3
2020-Jul-08 04:47 360 23.3
2020-Jul-08 04:31 360 23.3
2020-Jul-08 04:17 360 23.3
2020-Jul-08 04:02 360 23.3
2020-Jul-08 03:46 360 23.3
2020-Jul-08 03:31 360 23.3
2020-Jul-08 03:16 360 23.9
2020-Jul-08 03:01 360 23.9
2020-Jul-08 02:46 360 23.9
2020-Jul-08 02:31 360 23.9
2020-Jul-08 02:16 360 24.4
2020-Jul-08 02:02 360 24.4
2020-Jul-08 01:46 360 25.0
2020-Jul-08 01:32 360 25.0
2020-Jul-08 01:17 360 25.0
2020-Jul-08 01:02 360 25.6
2020-Jul-08 00:46 360 25.6
2020-Jul-08 00:31 360 26.1
2020-Jul-08 00:16 360 26.7
2020-Jul-08 00:01 360 26.7